Location: SE Lincoln, NE
(40.7805°N, 96.6275°W)
Time: 07:40:03
(UTC-05:00)

Nadezhda 1 Rocket - Pass Details

Date: 15 May 2021
Orbit: 940 x 1006 km, 83.0° (Epoch: 20 June)

Event Time Altitude Azimuth Distance (km) Brightness Sun altitude
Exits shadow 23:09:51 26° 200° (SSW) 1,852 5.1 -22.6°
Maximum altitude 23:13:37 71° 278° (W) 1,037 4.2 -23.0°
Drops below altitude 10° 23:19:50 10° 3° (N) 2,717 7.1 -23.6°
Sets 23:22:21 0° 6° (N) 3,659 7.8 -23.9°
